Vorticity
8 7 7 7 4 2 7 9 2 3 4 4 3 5 2 -1 2 1 -3 2 -5 3 3 8 6 5 4 4 4 2 4 3 2 4 5 5 5 6 7 7 10 8 8 6 9 8 4 6 9
7 9 10 8 4 2 10 11 16 4 2 3 5 3 1 3 12 -1 -3 1 2 1 2 7 4 6 4 2 5 5 4 4 2 5 3 3 4 6 7 8 9 9 11 9 7 8 4 7 6
3 2 4 5 11 14 14 10 10 15 15 9 10 5 4 8 9 -1 4 0 3 7 6 4 6 5 6 3 4 6 4 5 4 3 2 1 4 5 7 8 8 4 4 8 6 3 8 9 6
6 8 6 7 7 14 4 -0 6 3 2 14 3 0 8 7 9 1 1 3 2 -1 3 5 3 7 6 5 3 6 4 5 4 1 3 1 3 3 6 9 7 7 7 7 12 8 8 8 5
5 4 5 8 13 10 15 9 5 6 9 14 -18 9 1 7 9 8 0 -0 3 4 5 6 3 6 6 7 5 5 4 5 2 5 3 1 3 2 6 8 8 6 4 10 8 7 3 5 6
3 5 12 11 9 10 7 6 7 9 9 17 1 3 1 4 5 10 14 10 9 7 3 6 4 7 6 7 7 5 5 4 4 5 4 2 2 4 6 7 8 6 6 8 9 6 5 6 7
4 5 5 7 1 -0 9 7 12 8 7 25 1 -3 10 13 8 7 5 14 7 1 4 5 5 6 7 5 8 4 4 5 7 5 5 4 3 3 5 9 8 6 6 7 8 7 7 5 6
6 3 4 8 -3 2 7 8 8 9 17 14 -0 5 4 4 3 5 1 4 12 4 3 1 5 5 8 5 8 7 5 6 5 6 6 5 5 3 5 9 10 8 5 6 6 7 7 6 6
10 5 9 4 -3 -3 2 5 10 4 11 7 9 -0 6 1 4 -3 8 15 -2 1 1 2 2 6 4 7 8 8 5 6 5 4 7 7 5 3 7 7 9 8 8 6 7 7 7 6 8
5 10 9 -2 7 1 2 6 11 8 4 16 6 5 2 5 8 -0 -5 0 3 2 11 -2 4 4 5 5 6 7 5 7 4 4 6 8 7 2 5 6 8 9 9 6 7 8 9 6 8
5 0 6 6 8 0 -1 9 6 6 -1 11 5 7 6 3 5 10 7 1 8 10 10 7 3 2 5 5 5 8 7 6 6 4 4 8 6 7 3 5 6 6 9 9 7 6 8 10 7
4 10 10 -6 -1 -1 4 6 7 1 14 11 5 5 4 6 5 5 6 6 8 20 11 5 1 1 5 5 5 6 9 6 5 6 5 8 7 7 5 6 4 6 9 9 10 8 6 7 5
8 -1 4 3 3 6 3 0 3 -7 33 9 12 1 3 2 4 7 5 5 6 4 11 14 9 5 5 -2 7 4 6 8 6 6 5 6 6 6 5 4 5 4 8 9 9 9 12 7 6
-2 1 0 -5 2 2 2 4 -1 4 26 11 14 2 2 2 4 4 5 5 2 1 3 7 6 6 7 11 1 6 7 6 6 4 6 6 6 5 5 6 6 6 5 7 8 9 8 7 5
1 3 -1 -5 -2 1 9 -3 -11 2 6 15 16 11 2 2 4 3 4 5 4 2 8 13 6 5 7 6 2 3 7 7 7 6 4 6 6 6 5 5 7 5 6 5 7 9 8 7 7
1 2 -1 -1 1 5 10 -10 10 20 7 7 14 9 11 3 1 3 4 2 3 5 6 3 11 2 3 7 8 2 4 10 6 5 6 6 5 5 5 5 5 7 5 7 6 6 10 6 6
5 -6 4 -4 10 16 17 16 14 16 11 9 11 21 9 11 7 1 -1 -1 7 6 5 10 4 2 2 4 4 7 6 8 7 4 7 5 4 4 6 6 4 5 6 6 8 6 8 8 6
11 14 11 12 13 15 16 15 20 21 15 12 8 19 10 8 11 7 5 3 9 6 11 9 7 5 6 6 4 6 9 8 8 5 6 5 4 5 7 5 5 3 5 7 7 5 7 9 5
27 35 34 34 44 37 20 12 14 14 10 10 15 11 18 1 7 7 7 8 7 2 9 6 9 7 5 11 7 8 7 9 8 6 6 3 4 5 9 4 5 4 3 8 7 6 6 7 5
45 33 38 31 45 30 25 21 12 14 9 13 10 17 21 5 13 16 7 1 -5 6 4 6 4 4 4 8 9 9 11 9 9 5 3 8 6 6 8 3 5 5 4 6 9 6 6 6 5
15 25 33 24 25 16 25 30 20 15 13 9 9 20 16 21 9 5 -4 -10 2 3 1 6 2 8 4 4 8 11 11 10 11 8 7 6 7 6 4 3 6 6 6 7 8 7 4 6 6
14 45 18 14 13 23 15 43 29 24 21 19 10 14 18 17 10 9 27 6 10 15 10 7 6 9 8 8 6 5 12 11 9 4 4 -2 1 2 5 8 8 6 8 5 7 7 4 5 7
12 18 2 2 13 20 20 21 50 42 29 26 9 11 20 15 15 6 14 9 10 6 6 6 4 3 4 5 5 6 8 13 10 8 2 -3 10 4 5 4 5 6 8 4 7 7 5 6 8
24 19 -4 9 26 15 38 24 -10 25 6 14 21 24 12 17 15 20 3 8 7 7 1 1 7 9 6 5 7 9 7 4 11 2 11 5 6 5 6 5 6 4 7 4 7 7 6 5 7
27 5 16 18 15 17 23 18 -4 10 8 14 6 8 15 13 14 23 11 12 6 3 6 9 5 6 9 8 6 4 7 8 2 17 29 -19 -3 7 10 14 5 6 5 6 7 7 6 5 7
16 7 1 19 -4 23 6 20 3 14 2 8 13 11 13 9 6 11 12 12 14 14 8 10 14 6 7 4 4 5 6 8 9 3 3 11 4 7 6 12 8 9 7 10 5 7 6 5 6
6 4 -0 8 -6 10 12 16 19 12 -6 9 8 20 11 -10 5 -1 12 7 17 21 12 11 12 6 7 9 7 7 7 7 9 6 8 8 7 6 5 8 10 12 10 13 5 6 6 6 6
20 19 9 13 6 10 14 4 -13 -21 19 64 33 49 10 27 8 10 4 4 2 2 6 11 13 6 6 6 3 3 5 8 8 4 7 8 5 5 7 7 10 15 9 16 5 6 5 5 6
14 7 5 3 1 28 7 8 -2 10 -21 31 22 -0 -6 17 9 7 6 8 14 20 11 11 11 12 11 9 11 11 11 12 11 11 6 6 7 7 7 10 9 10 10 15 5 5 5 6 6
20 13 9 2 5 8 -14 -5 35 11 18 23 -8 10 16 22 14 0 15 16 7 -4 6 13 19 22 13 11 14 12 11 6 11 0 9 9 10 8 9 11 11 8 9 12 5 4 5 6 7
Height
5835 5835 5836 5838 5841 5840 5842 5845 5845 5844 5842 5841 5841 5842 5842 5842 5844 5844 5843 5845 5846 5847 5847 5844 5844 5843 5842 5841 5840 5838 5836 5835 5835 5834 5833 5831 5830 5828 5826 5824 5823 5822 5821 5821 5821 5820 5820 5820 5820
5828 5829 5831 5832 5834 5835 5838 5840 5840 5836 5834 5836 5837 5838 5839 5838 5837 5838 5841 5841 5842 5843 5844 5843 5841 5841 5840 5839 5838 5837 5835 5833 5833 5832 5831 5830 5829 5827 5825 5823 5822 5820 5819 5819 5819 5819 5818 5817 5818
5821 5822 5824 5825 5827 5830 5832 5832 5831 5831 5829 5830 5831 5833 5834 5834 5834 5835 5836 5838 5839 5840 5841 5840 5839 5838 5837 5837 5836 5834 5833 5832 5831 5830 5829 5828 5827 5825 5823 5821 5820 5819 5818 5817 5817 5817 5816 5815 5815
5815 5816 5818 5818 5821 5823 5826 5823 5825 5825 5824 5824 5825 5828 5830 5829 5829 5830 5832 5833 5835 5836 5837 5837 5836 5835 5834 5833 5833 5832 5831 5830 5829 5828 5827 5826 5825 5823 5822 5820 5818 5817 5816 5815 5815 5815 5814 5813 5811
5808 5809 5810 5811 5815 5817 5817 5817 5816 5818 5817 5817 5818 5823 5825 5826 5826 5826 5827 5828 5829 5831 5832 5833 5833 5831 5831 5831 5830 5830 5829 5828 5827 5826 5825 5823 5822 5820 5819 5818 5816 5815 5814 5813 5813 5812 5811 5810 5809
5801 5803 5804 5806 5808 5809 5810 5807 5811 5814 5814 5812 5811 5816 5820 5822 5822 5822 5823 5823 5825 5827 5828 5829 5829 5828 5827 5828 5827 5826 5826 5825 5825 5824 5823 5821 5819 5818 5816 5815 5813 5812 5811 5810 5810 5809 5808 5807 5807
5794 5795 5797 5799 5801 5802 5804 5804 5807 5807 5807 5806 5807 5809 5813 5815 5816 5818 5818 5818 5820 5822 5823 5825 5825 5824 5823 5824 5824 5823 5823 5822 5822 5821 5821 5819 5818 5816 5814 5812 5810 5810 5809 5808 5807 5806 5805 5804 5804
5786 5787 5790 5792 5793 5795 5799 5798 5798 5800 5803 5799 5799 5804 5806 5808 5809 5811 5810 5811 5814 5817 5819 5820 5820 5820 5820 5819 5819 5819 5819 5819 5818 5817 5817 5816 5816 5813 5811 5809 5808 5807 5806 5805 5804 5803 5802 5801 5800
5775 5778 5784 5784 5785 5788 5786 5788 5789 5792 5795 5795 5790 5792 5796 5798 5798 5801 5804 5806 5808 5811 5813 5814 5814 5815 5816 5815 5815 5815 5816 5815 5814 5814 5813 5812 5812 5811 5808 5807 5805 5804 5804 5803 5802 5800 5799 5798 5797
5764 5770 5775 5773 5775 5776 5776 5777 5778 5779 5783 5785 5785 5786 5787 5789 5790 5791 5795 5797 5801 5805 5807 5808 5810 5811 5812 5810 5810 5811 5811 5811 5810 5809 5809 5809 5808 5808 5806 5804 5802 5801 5801 5799 5798 5798 5796 5795 5795
5755 5763 5758 5761 5763 5767 5768 5765 5763 5766 5774 5776 5776 5777 5781 5782 5782 5783 5787 5790 5794 5798 5800 5802 5804 5804 5807 5806 5805 5805 5805 5806 5806 5805 5805 5805 5804 5804 5803 5801 5799 5798 5797 5796 5795 5795 5794 5792 5792
5744 5748 5746 5751 5753 5755 5753 5753 5750 5753 5766 5763 5762 5764 5770 5775 5775 5776 5779 5781 5786 5791 5793 5796 5798 5800 5801 5801 5800 5799 5800 5801 5801 5801 5800 5800 5800 5799 5799 5798 5797 5795 5794 5793 5792 5791 5790 5788 5788
5731 5734 5735 5736 5739 5738 5734 5741 5738 5749 5754 5748 5750 5751 5758 5765 5767 5767 5770 5772 5775 5782 5787 5789 5791 5792 5794 5795 5795 5794 5794 5795 5796 5796 5796 5795 5795 5795 5794 5793 5793 5791 5790 5789 5788 5787 5786 5785 5784
5718 5719 5722 5725 5727 5716 5715 5725 5724 5752 5737 5737 5740 5739 5746 5752 5755 5757 5759 5763 5766 5772 5776 5780 5781 5782 5785 5787 5789 5789 5788 5789 5790 5790 5791 5791 5790 5790 5790 5789 5788 5787 5786 5786 5784 5783 5782 5781 5780
5698 5700 5702 5716 5707 5704 5690 5702 5716 5737 5721 5722 5728 5730 5732 5738 5744 5747 5748 5755 5757 5763 5766 5771 5773 5774 5777 5780 5782 5782 5782 5782 5783 5784 5785 5785 5785 5785 5785 5784 5783 5782 5781 5781 5780 5779 5778 5778 5776
5678 5675 5679 5700 5686 5687 5674 5676 5709 5707 5700 5706 5713 5719 5720 5726 5732 5736 5739 5744 5751 5755 5759 5763 5765 5767 5769 5772 5774 5775 5775 5776 5777 5777 5778 5778 5779 5780 5780 5779 5778 5777 5776 5776 5776 5774 5773 5772 5771
5656 5648 5648 5666 5666 5662 5657 5646 5681 5684 5678 5683 5693 5701 5704 5711 5718 5724 5726 5733 5738 5745 5750 5752 5757 5759 5762 5764 5765 5766 5768 5770 5770 5770 5771 5772 5772 5773 5774 5774 5773 5772 5771 5771 5770 5770 5769 5768 5766
5630 5616 5617 5617 5648 5630 5631 5620 5643 5663 5655 5665 5673 5681 5690 5695 5705 5713 5717 5723 5726 5733 5738 5743 5747 5749 5753 5756 5756 5759 5762 5762 5762 5763 5765 5765 5766 5766 5768 5768 5768 5767 5765 5765 5764 5764 5763 5762 5760
5593 5585 5585 5594 5606 5613 5600 5603 5623 5641 5635 5650 5659 5667 5675 5679 5692 5698 5706 5712 5714 5717 5724 5731 5735 5739 5741 5745 5750 5752 5754 5754 5755 5755 5757 5758 5759 5760 5762 5762 5762 5761 5760 5759 5758 5758 5757 5756 5754
5576 5570 5571 5576 5592 5585 5580 5589 5608 5614 5621 5636 5645 5655 5662 5671 5680 5683 5686 5692 5697 5705 5713 5720 5723 5727 5735 5739 5742 5743 5745 5747 5748 5749 5750 5753 5752 5753 5755 5754 5755 5754 5753 5753 5752 5752 5751 5750 5748
5567 5563 5567 5568 5574 5568 5570 5572 5585 5600 5611 5623 5633 5644 5653 5660 5662 5663 5665 5674 5686 5696 5704 5710 5713 5719 5725 5729 5729 5733 5735 5737 5740 5743 5744 5744 5744 5744 5745 5746 5747 5747 5747 5746 5745 5745 5744 5743 5742
5563 5562 5561 5565 5563 5564 5565 5562 5577 5593 5601 5610 5620 5625 5634 5641 5649 5650 5660 5672 5681 5687 5696 5702 5705 5709 5715 5719 5721 5724 5726 5727 5733 5732 5733 5734 5734 5735 5737 5739 5740 5739 5739 5739 5739 5738 5737 5736 5735
5561 5558 5560 5560 5559 5559 5564 5563 5579 5582 5591 5596 5605 5616 5625 5633 5638 5644 5654 5664 5673 5679 5685 5693 5699 5701 5705 5709 5714 5715 5717 5721 5723 5724 5724 5725 5726 5726 5728 5730 5731 5731 5731 5732 5732 5731 5730 5729 5727
5555 5556 5558 5557 5557 5555 5562 5566 5574 5579 5586 5592 5600 5608 5616 5624 5631 5638 5648 5657 5663 5670 5677 5685 5690 5694 5696 5699 5702 5706 5708 5710 5713 5715 5714 5715 5716 5717 5719 5720 5722 5723 5723 5724 5725 5725 5724 5722 5721
5552 5555 5557 5558 5557 5559 5563 5566 5574 5575 5583 5590 5597 5603 5609 5617 5625 5632 5640 5648 5654 5661 5668 5676 5680 5684 5687 5688 5692 5695 5699 5699 5702 5706 5708 5690 5709 5710 5711 5711 5713 5715 5715 5716 5717 5717 5717 5715 5714
5551 5554 5556 5558 5560 5563 5564 5568 5572 5575 5582 5586 5592 5597 5604 5610 5616 5624 5630 5638 5644 5650 5658 5663 5668 5673 5677 5679 5681 5685 5688 5689 5693 5695 5697 5700 5699 5699 5700 5702 5703 5705 5707 5708 5709 5709 5709 5708 5707
5556 5556 5561 5559 5559 5563 5564 5570 5573 5575 5577 5578 5587 5592 5597 5603 5611 5618 5625 5632 5637 5642 5647 5652 5657 5661 5665 5668 5671 5673 5677 5679 5683 5685 5686 5687 5688 5689 5690 5691 5694 5697 5698 5699 5700 5701 5701 5701 5700
5557 5558 5559 5560 5562 5564 5565 5566 5566 5573 5576 5575 5582 5587 5593 5597 5605 5613 5619 5624 5630 5635 5639 5643 5646 5649 5653 5657 5660 5663 5666 5670 5673 5673 5674 5677 5677 5678 5679 5681 5686 5687 5688 5691 5692 5693 5694 5693 5693
5558 5558 5560 5562 5562 5563 5566 5568 5566 5573 5574 5575 5578 5582 5591 5595 5600 5607 5613 5618 5623 5627 5630 5633 5636 5638 5641 5645 5649 5652 5655 5658 5662 5666 5664 5665 5667 5669 5670 5672 5675 5677 5679 5682 5682 5684 5686 5686 5686
5557 5560 5560 5563 5565 5564 5564 5568 5567 5571 5575 5576 5578 5582 5586 5592 5597 5601 5607 5612 5616 5620 5622 5625 5627 5630 5633 5635 5638 5641 5643 5646 5650 5655 5655 5656 5658 5659 5660 5661 5663 5665 5668 5671 5674 5676 5677 5678 5679